Home   Weather   Missoula   Past weeks
Flag for USA

Past Weather in Missoula, Montana, USA — Yesterday and Last 2 Weeks

Now
39 °F

Mostly cloudy.


Feels Like: 35 °F
Forecast: 44 / 34 °F
Wind: 6 mph from Northwest

Location: Missoula International Airport

Current Time: Oct 20, 2019 at 12:08:57 am

Latest Report: Oct 19, 2019 at 10:53 pm


Visibility: 10 mi

Pressure: 29.77 "Hg (26.41 "Hg at 971m altitude)

Humidity: 86%

Dew Point: 35 °F

Location of MissoulaLocation

Past Weather in Missoula — Graph

°F

Missoula Temperature Yesterday

Maximum temperature yesterday: 45 °F (at 12:53 pm)
Minimum temperature yesterday: 35 °F (at 7:53 am)
Average temperature yesterday: 41 °F

High & Low Weather Summary for the Past Weeks

 TemperatureHumidityPressure
High68 °F (Oct 16, 3:53 pm)89% (Oct 6, 6:53 am)30.58 "Hg (Oct 6, 6:53 am)
Low19 °F (Oct 10, 7:53 am)28% (Oct 16, 3:53 pm)29.57 "Hg (Oct 19, 3:12 pm)
Average41 °F63%30.07 "Hg
* Reported Oct 4 10:53 pm — Oct 19 10:53 pm, Missoula. Weather by CustomWeather, © 2019

Note: Actual official high and low records may vary slightly from our data, if they occured in-between our weather recording intervals... More about our weather records

Advertising

Missoula Weather History for the Previous 24 Hours

Scroll right to see more
 ConditionsComfort  
Time TempWeatherWind HumidityBarometerVisibility
10:53 pm
Sat, Oct 19
39 °FMostly cloudy.6 mph86%29.77 "Hg10 mi
9:53 pm41 °FMostly cloudy.No wind74%29.73 "Hg10 mi
8:53 pm40 °FMostly cloudy.No wind77%29.71 "Hg10 mi
7:53 pm41 °FPassing clouds.3 mph74%29.69 "Hg10 mi
6:53 pm42 °FPassing clouds.6 mph73%29.65 "Hg10 mi
5:53 pm43 °FPartly sunny.7 mph76%29.64 "Hg10 mi
4:53 pm43 °FLight rain. Mostly cloudy.6 mph74%29.62 "Hg10 mi
4:14 pm44 °FMore clouds than sun.9 mph65%29.58 "Hg10 mi
3:53 pm44 °FMore clouds than sun.10 mph65%29.60 "Hg10 mi
3:12 pm42 °FMostly cloudy.7 mph73%29.57 "Hg10 mi
1:53 pm41 °FLight rain. Mostly cloudy.14 mph74%29.63 "Hg10 mi
1:26 pm42 °FMostly cloudy.12 mph68%29.60 "Hg10 mi
12:53 pm45 °FMostly cloudy.5 mph48%29.62 "Hg10 mi
11:53 am44 °FMostly cloudy.7 mph53%29.62 "Hg10 mi
10:53 am42 °FPassing clouds.7 mph55%29.64 "Hg10 mi
9:53 am40 °FOvercast.9 mph60%29.70 "Hg10 mi
8:53 am39 °FPartly sunny.12 mph62%29.72 "Hg10 mi
7:53 am35 °FClear.12 mph75%29.73 "Hg10 mi
6:53 am39 °FPartly cloudy.6 mph65%29.77 "Hg10 mi
5:53 am40 °FOvercast.10 mph65%29.78 "Hg10 mi
4:53 am39 °FOvercast.10 mph70%29.81 "Hg10 mi
3:53 am41 °FOvercast.3 mph62%29.84 "Hg10 mi
2:53 am40 °FOvercast.7 mph65%29.86 "Hg10 mi
1:53 am41 °FOvercast.10 mph62%29.87 "Hg10 mi
12:53 am41 °FOvercast.7 mph62%29.88 "Hg10 mi
Weather by CustomWeather, © 2019

See weather overview